Wind_Speed
31 32 32 31 31 31 32 32 32 31 31 30 32 33 33 34 35 35 35 36 37 38 38 39 39 40 41 42 43 43 43 44 44 45 46 46 46 46 46 46 46 46 46 46
35 34 35 35 33 33 34 34 34 34 33 34 35 36 36 36 36 36 37 38 38 38 39 39 40 41 41 42 42 42 43 43 44 44 45 45 45 46 46 46 46 45 45 45
38 37 39 38 35 35 35 35 36 36 35 36 37 38 37 37 37 38 38 39 39 39 40 40 40 40 41 41 42 42 43 44 44 44 44 44 45 45 45 44 44 44 44 44
40 40 40 38 37 36 36 36 37 37 37 38 38 38 38 38 38 38 39 39 39 40 40 40 40 41 41 42 43 43 44 45 45 44 44 44 44 44 43 42 42 42 43 43
42 43 43 40 39 38 38 38 37 37 38 38 38 38 38 38 38 38 38 39 39 40 40 41 41 41 42 42 43 43 44 45 45 44 44 44 43 42 41 41 41 41 41 41
43 44 44 42 40 40 40 40 38 39 39 39 38 39 38 38 38 38 39 39 40 40 41 42 42 42 43 43 43 44 44 44 44 44 43 42 42 41 40 40 40 39 39 39
43 44 44 42 41 41 41 40 40 41 40 40 40 40 40 39 39 39 40 40 41 41 42 43 43 43 44 43 44 44 44 44 44 42 41 41 41 40 39 39 38 38 37 38
44 44 43 41 41 41 41 42 42 42 42 41 41 42 41 41 40 40 41 42 42 42 42 43 44 44 43 43 44 44 43 42 41 40 40 39 39 39 38 38 37 37 37 36
44 44 43 42 42 41 42 42 43 43 43 43 43 43 43 43 43 43 43 43 43 43 43 43 44 44 44 43 43 42 41 39 38 38 38 38 38 37 37 37 36 36 35 34
45 43 42 42 42 42 43 44 44 44 44 45 45 44 45 45 45 45 44 44 44 44 44 44 44 44 43 42 42 41 40 38 37 37 37 37 37 37 37 36 36 35 34 33
45 44 44 44 44 44 45 45 45 46 46 46 46 46 46 46 46 45 45 44 44 44 44 43 42 42 41 41 40 39 38 38 37 37 36 36 36 36 35 35 34 34 33 33
46 45 46 45 44 45 45 45 45 45 45 46 46 46 46 45 45 45 44 44 43 43 43 41 40 40 39 39 37 37 36 36 36 36 35 35 35 34 34 34 33 33 33 33
45 45 46 46 46 45 46 46 45 45 45 45 45 45 44 44 44 44 43 42 42 41 41 40 39 38 38 37 36 35 35 35 34 34 34 34 33 33 33 32 32 32 32 32
44 45 45 45 45 45 45 44 44 44 44 43 43 43 43 43 43 42 41 41 40 40 39 39 38 37 37 36 36 35 35 34 33 33 32 32 32 31 31 31 31 32 31 31
42 42 42 42 42 42 42 42 42 42 42 42 42 42 41 41 41 40 40 40 39 39 39 39 39 37 37 36 35 34 34 34 33 32 32 32 31 31 31 31 31 31 31 30
39 39 39 40 40 40 41 41 41 41 41 41 40 40 40 39 39 39 39 40 39 39 39 39 38 38 37 36 35 34 33 33 33 32 32 32 31 31 31 31 30 30 30 30
36 37 37 38 38 39 39 40 40 40 40 39 39 39 39 39 38 39 39 40 39 39 38 38 38 37 37 36 36 35 34 33 33 33 32 31 31 31 31 31 30 30 30 29
35 35 35 36 36 37 37 38 38 38 38 38 39 39 39 39 39 39 39 39 39 38 37 37 37 36 35 35 34 34 34 33 32 32 31 31 31 31 30 30 30 30 29 28
34 34 34 34 35 35 36 36 36 37 37 37 38 38 38 38 38 38 38 38 37 36 35 35 35 35 35 34 34 34 34 33 33 32 31 31 31 30 30 29 29 29 28 27
33 33 34 34 34 35 35 35 35 35 35 35 36 36 36 37 37 37 37 36 35 34 34 34 34 34 34 33 33 33 33 33 32 31 31 30 30 30 30 29 29 28 28 28
34 34 34 34 34 34 34 34 34 33 33 33 33 34 34 35 35 35 35 34 33 33 33 33 32 32 32 32 32 32 32 31 30 30 29 29 29 29 29 29 29 29 29 29
34 34 34 34 34 34 33 33 33 33 32 32 32 33 33 33 33 33 33 33 32 32 32 32 32 32 31 31 30 30 30 30 29 29 29 29 29 30 29 29 29 30 30 30
33 34 34 34 34 33 33 32 32 32 32 32 32 32 32 32 32 32 32 31 31 31 31 31 31 31 31 30 30 29 29 29 29 29 29 29 30 30 30 30 30 30 31 31
33 33 33 33 33 32 32 31 31 31 31 31 31 32 32 31 31 31 31 30 30 30 30 30 30 30 30 29 29 29 29 29 29 29 29 30 30 30 31 31 31 31 31 31
33 33 34 34 33 32 31 31 31 30 30 30 30 30 30 30 30 29 29 29 29 29 29 29 29 29 29 29 29 29 29 29 29 29 29 30 30 30 31 31 31 31 31 31
33 33 33 33 32 31 31 31 31 30 30 29 29 29 29 29 30 29 29 29 30 29 29 28 28 28 28 28 28 28 28 28 28 29 29 29 30 29 30 30 31 31 30 30
32 31 32 31 31 31 32 32 31 29 29 29 29 28 29 29 30 30 30 29 29 28 27 27 26 26 26 26 26 26 27 27 27 27 27 27 27 28 28 29 29 29 30 30
Wind_Direction
279 279 279 278 279 279 278 278 279 280 279 278 277 278 278 277 276 276 276 276 275 275 275 275 274 275 275 275 276 276 276 277 277 277 277 278 278 279 280 280 280 280 280 280
277 278 278 278 280 280 278 278 278 278 278 277 278 279 279 278 277 277 277 277 277 277 277 277 277 277 277 277 277 277 277 278 278 279 279 279 279 280 281 281 280 280 280 279
278 278 277 279 281 280 280 278 277 278 278 277 278 279 280 279 278 277 278 278 278 278 278 278 278 278 278 277 277 278 278 278 279 279 279 279 280 281 281 281 280 280 279 279
279 279 279 281 280 280 279 278 278 278 278 277 278 279 279 279 279 279 278 279 279 279 279 279 278 279 279 278 278 279 280 280 280 279 279 280 281 281 280 281 281 280 280 279
278 278 279 280 281 280 279 278 277 277 277 277 278 278 279 280 280 279 278 278 278 279 279 279 280 279 279 280 280 280 280 280 280 280 279 280 280 280 281 281 281 281 280 279
278 279 280 281 280 279 278 277 276 276 276 276 277 278 278 279 279 279 278 279 278 278 279 280 280 280 281 281 281 281 281 281 280 280 280 280 280 280 281 281 280 280 279 279
277 277 278 280 279 278 278 278 276 276 276 277 277 278 278 279 279 280 279 279 279 279 280 281 281 282 282 281 282 282 282 281 281 280 281 281 281 281 281 281 280 280 280 280
275 275 277 277 276 276 276 275 275 275 276 276 276 277 278 279 279 279 280 280 280 280 281 282 282 283 283 282 282 283 282 282 281 280 280 280 281 281 281 281 281 280 280 280
275 275 275 275 275 274 274 274 274 275 275 275 276 277 278 278 279 279 280 281 281 281 282 283 284 284 283 282 282 282 281 280 279 279 279 280 281 281 281 281 280 280 280 280
274 274 273 272 271 271 272 273 274 274 275 275 276 277 277 278 279 280 280 280 281 282 282 283 283 283 282 282 282 280 279 278 278 279 279 280 280 281 280 280 279 279 279 279
273 273 271 269 270 271 272 273 274 275 276 276 276 277 277 279 280 281 281 280 281 282 283 283 283 283 282 282 281 279 277 277 278 278 279 279 280 280 279 279 278 278 278 278
273 272 271 270 270 271 272 273 274 274 275 276 277 277 278 280 281 281 282 281 281 281 282 282 282 283 283 282 281 279 278 277 277 277 277 278 278 277 277 277 276 277 277 278
273 272 271 271 271 272 272 273 274 275 276 276 277 278 279 280 281 281 281 281 280 280 281 281 281 282 283 282 280 279 278 277 276 275 276 277 277 276 276 275 275 275 277 278
273 273 273 273 273 272 272 272 273 275 276 276 277 278 279 279 279 280 280 280 280 280 280 280 281 281 281 280 279 278 277 276 275 275 275 275 275 276 275 275 275 276 277 278
273 273 274 273 272 272 272 273 273 274 275 276 276 277 278 279 280 280 279 279 280 281 281 280 280 280 280 280 279 277 275 274 273 273 274 274 274 275 276 277 276 276 277 279
272 273 273 273 272 272 273 273 273 274 275 275 276 278 279 279 280 280 279 279 280 280 281 281 280 279 278 278 277 275 274 273 272 272 274 273 272 273 274 275 276 276 277 278
273 273 274 274 273 273 273 273 273 274 274 275 276 277 279 280 280 281 280 280 280 280 280 280 280 279 277 276 275 274 273 272 272 272 273 272 271 272 272 273 274 275 276 277
276 277 277 276 276 275 274 274 275 274 275 275 276 278 280 281 281 281 281 280 280 280 280 279 279 278 277 277 275 272 272 272 272 272 271 269 269 270 272 273 274 274 275 276
276 278 278 278 279 278 278 278 278 277 277 277 277 279 280 280 281 281 281 281 280 280 279 278 278 277 278 276 273 272 271 271 271 270 269 269 268 270 272 272 272 273 273 274
277 278 279 279 279 280 280 279 280 280 279 278 279 280 280 280 280 280 281 281 280 279 279 279 278 278 277 275 273 272 272 270 268 267 268 268 269 270 271 271 271 271 272 274
276 277 278 279 280 280 280 280 281 281 281 280 281 282 282 282 281 280 280 279 278 278 278 278 277 277 276 274 272 271 271 269 267 266 266 268 269 270 270 270 271 272 272 273
277 277 278 279 280 280 280 281 281 281 282 282 284 285 285 283 282 281 281 279 278 278 278 277 276 276 275 274 272 271 270 268 267 267 267 268 269 270 270 270 271 273 273 274
279 278 278 279 281 281 281 281 281 280 281 282 283 285 285 284 283 282 281 278 278 279 278 278 277 276 275 273 271 270 269 268 267 267 267 269 270 270 269 270 272 274 274 275
279 279 280 281 282 282 282 281 281 281 281 282 283 285 285 284 284 283 282 279 278 279 279 277 276 275 274 273 271 270 270 269 268 268 269 270 270 269 270 270 272 273 274 275
279 279 280 282 282 281 281 281 281 281 282 283 283 284 284 284 284 283 282 280 279 279 278 277 275 274 274 273 272 271 270 269 268 268 268 269 269 270 271 272 272 273 274 275
280 280 280 280 280 279 279 280 281 282 282 282 282 283 283 283 283 283 283 282 280 279 278 277 276 275 274 274 272 271 270 269 269 269 270 271 270 269 270 271 272 273 274 275
280 279 279 279 278 278 279 280 282 282 282 282 283 283 283 283 283 283 283 283 281 279 277 277 276 275 274 274 273 271 270 271 270 271 271 270 269 269 271 272 273 273 274 275
Height
5659 5658 5657 5657 5657 5655 5653 5653 5652 5653 5652 5652 5648 5647 5647 5646 5645 5645 5644 5643 5642 5640 5639 5638 5637 5636 5635 5634 5633 5632 5630 5629 5627 5625 5624 5622 5621 5619 5618 5616 5614 5613 5611 5610
5651 5650 5648 5648 5649 5647 5645 5644 5643 5642 5643 5642 5639 5638 5637 5636 5635 5635 5633 5632 5631 5630 5629 5627 5626 5625 5623 5622 5621 5620 5618 5617 5615 5613 5611 5609 5608 5606 5605 5603 5601 5599 5598 5596
5640 5640 5638 5639 5641 5638 5636 5635 5634 5633 5634 5631 5630 5629 5627 5626 5625 5624 5623 5622 5620 5619 5618 5616 5615 5613 5612 5610 5609 5608 5606 5604 5602 5600 5598 5596 5595 5593 5591 5590 5588 5586 5585 5584
5629 5629 5628 5633 5630 5628 5626 5625 5624 5623 5622 5621 5620 5619 5617 5615 5614 5613 5612 5611 5609 5608 5606 5605 5603 5601 5600 5598 5597 5595 5593 5591 5589 5587 5585 5583 5582 5580 5579 5577 5576 5574 5573 5571
5618 5616 5617 5621 5620 5617 5615 5615 5614 5612 5611 5610 5609 5608 5607 5605 5603 5602 5601 5599 5598 5596 5595 5593 5591 5590 5588 5586 5585 5583 5580 5578 5576 5574 5573 5571 5569 5568 5566 5565 5564 5562 5560 5559
5607 5605 5605 5610 5607 5605 5604 5603 5603 5601 5600 5599 5598 5598 5598 5595 5593 5591 5589 5588 5586 5585 5583 5581 5579 5578 5576 5574 5572 5570 5568 5565 5563 5562 5560 5559 5557 5556 5554 5553 5551 5550 5548 5547
5596 5593 5594 5597 5594 5593 5593 5593 5590 5589 5588 5588 5587 5586 5586 5584 5582 5580 5578 5576 5575 5573 5571 5569 5567 5565 5564 5561 5560 5557 5555 5552 5551 5549 5548 5546 5545 5544 5542 5541 5540 5538 5537 5536
5584 5582 5585 5584 5582 5581 5580 5578 5577 5576 5576 5575 5575 5574 5573 5572 5570 5568 5566 5565 5562 5561 5559 5557 5554 5552 5551 5549 5547 5544 5542 5540 5538 5537 5535 5534 5533 5532 5531 5530 5529 5528 5526 5525
5572 5574 5572 5570 5569 5568 5567 5566 5565 5564 5564 5563 5562 5562 5561 5559 5558 5556 5554 5552 5550 5548 5547 5544 5542 5539 5538 5536 5533 5531 5529 5528 5526 5525 5524 5523 5522 5521 5520 5519 5518 5517 5516 5514
5559 5560 5559 5558 5556 5555 5554 5553 5552 5552 5551 5550 5549 5549 5548 5546 5545 5543 5542 5540 5537 5536 5534 5532 5529 5527 5525 5523 5521 5519 5518 5516 5515 5514 5513 5512 5511 5510 5509 5508 5507 5506 5505 5504
5545 5547 5545 5545 5544 5543 5541 5540 5540 5539 5538 5537 5536 5535 5534 5533 5532 5530 5528 5526 5524 5522 5521 5519 5517 5515 5512 5510 5508 5507 5506 5505 5504 5503 5502 5501 5500 5499 5498 5497 5496 5496 5495 5494
5532 5533 5530 5531 5531 5530 5528 5527 5527 5526 5525 5524 5522 5522 5521 5520 5519 5517 5515 5513 5511 5510 5508 5506 5504 5503 5501 5498 5496 5495 5494 5493 5492 5492 5491 5490 5489 5488 5487 5487 5486 5485 5485 5484
5518 5517 5516 5517 5517 5516 5515 5515 5514 5513 5512 5511 5510 5509 5508 5507 5506 5504 5502 5500 5498 5497 5495 5494 5492 5491 5489 5487 5485 5484 5483 5482 5481 5481 5480 5479 5479 5478 5478 5477 5476 5475 5475 5474
5505 5504 5503 5504 5503 5503 5502 5501 5501 5500 5499 5498 5497 5496 5495 5494 5493 5491 5490 5488 5486 5485 5483 5482 5480 5479 5477 5476 5474 5473 5472 5471 5471 5470 5469 5469 5469 5468 5468 5467 5467 5466 5465 5464
5492 5490 5490 5490 5490 5489 5489 5488 5488 5487 5486 5486 5484 5483 5482 5481 5480 5479 5477 5476 5474 5473 5471 5470 5469 5467 5466 5464 5463 5462 5462 5461 5460 5460 5459 5459 5459 5459 5458 5458 5457 5457 5456 5455
5479 5478 5478 5478 5478 5477 5476 5476 5476 5475 5474 5473 5472 5471 5470 5469 5468 5467 5465 5464 5462 5461 5460 5458 5457 5455 5454 5453 5452 5451 5451 5450 5450 5450 5449 5449 5449 5449 5449 5448 5448 5447 5446 5446
5468 5467 5467 5466 5466 5465 5465 5464 5463 5463 5462 5461 5460 5459 5458 5457 5456 5455 5453 5452 5450 5449 5448 5446 5445 5443 5442 5441 5441 5440 5440 5440 5439 5439 5439 5439 5439 5439 5439 5439 5438 5438 5437 5436
5457 5456 5456 5455 5454 5453 5453 5452 5451 5450 5449 5449 5448 5447 5446 5445 5444 5443 5441 5440 5439 5438 5436 5434 5433 5432 5431 5430 5429 5429 5429 5429 5429 5429 5429 5429 5429 5429 5429 5429 5429 5428 5428 5427
5447 5446 5445 5444 5443 5442 5441 5441 5440 5439 5438 5437 5436 5435 5434 5433 5432 5430 5429 5428 5427 5426 5425 5423 5422 5421 5420 5420 5419 5418 5418 5418 5418 5418 5418 5419 5419 5419 5419 5419 5419 5419 5418 5418
5437 5436 5435 5434 5433 5432 5431 5429 5428 5427 5426 5425 5424 5423 5422 5421 5420 5418 5417 5416 5415 5414 5413 5412 5411 5410 5409 5409 5408 5408 5407 5408 5408 5408 5408 5408 5409 5409 5409 5409 5409 5409 5409 5409
5427 5426 5425 5423 5422 5421 5420 5419 5418 5417 5416 5414 5413 5412 5411 5409 5408 5407 5406 5405 5405 5403 5402 5401 5400 5400 5399 5398 5398 5397 5397 5397 5398 5398 5398 5399 5399 5399 5400 5400 5400 5400 5400 5400
5417 5416 5415 5413 5412 5411 5410 5409 5407 5406 5405 5404 5403 5401 5400 5398 5397 5396 5395 5394 5394 5393 5392 5391 5390 5389 5388 5388 5388 5388 5388 5388 5388 5388 5389 5389 5389 5390 5390 5390 5390 5390 5390 5390
5406 5405 5404 5403 5402 5401 5400 5398 5397 5396 5395 5394 5392 5391 5389 5388 5386 5385 5385 5384 5383 5382 5382 5381 5380 5379 5378 5378 5378 5378 5378 5378 5378 5379 5379 5379 5380 5380 5380 5380 5380 5380 5380 5380
5396 5395 5394 5393 5392 5390 5389 5388 5387 5386 5384 5383 5382 5381 5379 5377 5376 5375 5374 5374 5373 5372 5372 5371 5370 5369 5368 5368 5368 5368 5368 5369 5369 5369 5370 5370 5370 5370 5370 5370 5370 5370 5370 5369
5386 5385 5384 5383 5381 5380 5379 5378 5377 5376 5375 5374 5372 5371 5369 5367 5366 5366 5365 5364 5363 5362 5362 5361 5360 5359 5359 5358 5358 5359 5359 5359 5359 5359 5360 5360 5360 5360 5360 5360 5360 5360 5359 5359
5376 5374 5373 5372 5371 5370 5368 5367 5367 5366 5365 5364 5363 5361 5360 5358 5357 5356 5355 5354 5353 5353 5352 5351 5351 5350 5349 5349 5349 5349 5349 5350 5350 5350 5350 5350 5350 5350 5350 5350 5350 5349 5349 5349
5366 5364 5363 5362 5361 5359 5358 5358 5357 5356 5355 5354 5353 5352 5351 5349 5348 5346 5345 5345 5344 5343 5342 5342 5342 5341 5341 5340 5340 5340 5340 5341 5341 5341 5341 5341 5341 5341 5341 5340 5340 5340 5340 5340